Location: Flynn Junction
(40.1314°N, 99.5162°W)
Time: 21:29:28
(UTC+00:00)

Aureole 1 Rocket - Pass Details

Date: 29 October 2020
Orbit: 379 x 1377 km, 73.9° (Epoch: 01 December)

Event Time Altitude Azimuth Distance (km) Brightness Sun altitude
Rises 12:31:55 0° 191° (S) 3,675 7.0 -6.9°
Reaches altitude 10° 12:34:47 10° 189° (S) 2,563 6.3 -6.3°
Maximum altitude 12:40:30 68° 108° (ESE) 778 3.9 -5.3°
Drops below altitude 10° 12:44:50 10° 25° (NNE) 1,951 5.8 -4.5°
Sets 12:46:47 0° 23° (NNE) 2,735 6.5 -4.1°
